Tracking 29059 objects as of 19-Jun-2024
HD Live streaming from Space Station
objects crossing your sky now

DELTA 1 DEB

Track DELTA 1 DEB now!
10-day predictions


NORAD ID: 9042
Int'l Code: 1975-004DG
Perigee: 717.9 km
Apogee: 808.2 km
Inclination: 97.9 °
Period: 99.9 minutes
Semi major axis: 7134 km
RCS: 0.263 m2 (medium)
Launch date: January 22, 1975
Source: United States (US)
Launch site: AIR FORCE WESTERN TEST RANGE (AFWTR)

Note: This is SATELLITE DEBRIS
Your satellite tracking list
Your tracking list is empty




NASA's NSSDC Master Catalog

Two Line Element Set (TLE):
1 09042U 75004DG  24170.94434293  .00000424  00000-0  14132-3 0  9997
2 09042  97.8872 159.7710 0063343 120.5988 240.1471 14.40782814534741
Source of the keplerian elements: AFSPC